| time (UTC) | temp F | wind direction | speed MPH | gust MPH | rain 1hr in | rain 24hr in | rain mn in | humidity % | barometer mb |
| 20260504100517 | 60 | 155 | 0.0 | 6.0 | 0.00 | 0.00 | 0.00 | 38 | 1002.4 |
| 20260504081521 | 60 | 184 | 1.0 | 4.0 | 0.00 | 0.00 | 0.00 | 31 | 1002.1 |
| 20260504081007 | 58 | 158 | 2.0 | 5.0 | 0.00 | 0.00 | 0.00 | 34 | 1002.2 |
| 20260504080507 | 54 | 153 | 1.0 | 3.0 | 0.00 | 0.00 | 0.00 | 41 | 1002.4 |
| 20260504070106 | 54 | 121 | 0.0 | 0.0 | 0.00 | 0.00 | 0.00 | 40 | 1002.0 |
| 20260504050545 | 63 | 121 | 0.0 | 0.0 | 0.00 | 0.00 | 0.00 | 28 | 1002.5 |
| 20260504045546 | 62 | 121 | 0.0 | 0.0 | 0.00 | 0.00 | 0.00 | 29 | 1002.6 |
| 20260504045045 | 62 | 121 | 0.0 | 0.0 | 0.00 | 0.00 | 0.00 | 31 | 1002.8 |
| 20260504044545 | 62 | 114 | 0.0 | 0.0 | 0.00 | 0.00 | 0.00 | 30 | 1002.9 |
| 20260504044045 | 64 | 129 | 0.0 | 0.0 | 0.00 | 0.00 | 0.00 | 28 | 1002.9 |
| 20260504043545 | 64 | 210 | 0.0 | 0.0 | 0.00 | 0.00 | 0.00 | 27 | 1002.7 |
| 20260504043047 | 64 | 210 | 0.0 | 0.0 | 0.00 | 0.00 | 0.00 | 27 | 1002.7 |
| 20260504042547 | 65 | 210 | 0.0 | 0.0 | 0.00 | 0.00 | 0.00 | 27 | 1002.7 |
| 20260504042048 | 65 | 210 | 0.0 | 2.0 | 0.00 | 0.00 | 0.00 | 27 | 1002.8 |
| 20260504041548 | 65 | 210 | 0.0 | 2.0 | 0.00 | 0.00 | 0.00 | 27 | 1002.8 |
| 20260504041045 | 65 | 210 | 1.0 | 2.0 | 0.00 | 0.00 | 0.00 | 26 | 1002.8 |
| 20260504040546 | 65 | 210 | 1.0 | 2.0 | 0.00 | 0.00 | 0.00 | 26 | 1002.9 |
| 20260504040043 | 65 | 210 | 0.0 | 2.0 | 0.00 | 0.00 | 0.00 | 26 | 1002.9 |
| 20260504035543 | 65 | 210 | 0.0 | 1.0 | 0.00 | 0.00 | 0.00 | 26 | 1002.9 |
| 20260504035046 | 65 | 210 | 0.0 | 0.0 | 0.00 | 0.00 | 0.00 | 26 | 1002.9 |
| 20260504034555 | 66 | 210 | 0.0 | 0.0 | 0.00 | 0.00 | 0.00 | 26 | 1002.9 |
| 20260504034043 | 66 | 216 | 0.0 | 0.0 | 0.00 | 0.00 | 0.00 | 26 | 1002.8 |
| 20260504033544 | 66 | 216 | 0.0 | 0.0 | 0.00 | 0.00 | 0.00 | 26 | 1002.9 |
| 20260504033043 | 66 | 216 | 0.0 | 1.0 | 0.00 | 0.00 | 0.00 | 26 | 1002.9 |
| 20260504032543 | 66 | 216 | 0.0 | 1.0 | 0.00 | 0.00 | 0.00 | 26 | 1002.9 |
| 20260504032045 | 66 | 216 | 0.0 | 1.0 | 0.00 | 0.00 | 0.00 | 26 | 1002.8 |
| 20260504031543 | 66 | 218 | 0.0 | 1.0 | 0.00 | 0.00 | 0.00 | 26 | 1002.8 |
| 20260504031044 | 66 | 218 | 0.0 | 1.0 | 0.00 | 0.00 | 0.00 | 26 | 1002.7 |
| 20260504030542 | 67 | 218 | 0.0 | 1.0 | 0.00 | 0.00 | 0.00 | 26 | 1002.8 |
| 20260504030043 | 67 | 218 | 0.0 | 1.0 | 0.00 | 0.00 | 0.00 | 26 | 1002.7 |
| 20260504025541 | 67 | 218 | 0.0 | 1.0 | 0.00 | 0.00 | 0.00 | 25 | 1002.7 |
| 20260504025042 | 68 | 218 | 0.0 | 2.0 | 0.00 | 0.00 | 0.00 | 24 | 1002.7 |
| 20260504024542 | 68 | 224 | 0.0 | 2.0 | 0.00 | 0.00 | 0.00 | 24 | 1002.7 |
| 20260504024041 | 69 | 238 | 0.0 | 2.0 | 0.00 | 0.00 | 0.00 | 24 | 1002.6 |
| 20260504023541 | 69 | 251 | 0.0 | 2.0 | 0.00 | 0.00 | 0.00 | 24 | 1002.6 |
| 20260504023041 | 69 | 251 | 0.0 | 2.0 | 0.00 | 0.00 | 0.00 | 23 | 1002.6 |
| 20260504022540 | 69 | 251 | 0.0 | 3.0 | 0.00 | 0.00 | 0.00 | 23 | 1002.5 |
| 20260504022042 | 68 | 251 | 0.0 | 3.0 | 0.00 | 0.00 | 0.00 | 24 | 1002.5 |
| 20260504021540 | 68 | 261 | 0.0 | 3.0 | 0.00 | 0.00 | 0.00 | 25 | 1002.5 |
| 20260504021042 | 68 | 261 | 1.0 | 6.0 | 0.00 | 0.00 | 0.00 | 25 | 1002.4 |
| 20260504020540 | 68 | 263 | 3.0 | 6.0 | 0.00 | 0.00 | 0.00 | 24 | 1002.5 |
| 20260504020040 | 69 | 271 | 2.0 | 6.0 | 0.00 | 0.00 | 0.00 | 24 | 1002.5 |
| 20260504015540 | 68 | 269 | 2.0 | 6.0 | 0.00 | 0.00 | 0.00 | 24 | 1002.4 |
| 20260504015041 | 69 | 266 | 2.0 | 4.0 | 0.00 | 0.00 | 0.00 | 24 | 1002.5 |
| 20260504014552 | 69 | 271 | 1.0 | 4.0 | 0.00 | 0.00 | 0.00 | 24 | 1002.5 |
| 20260504014040 | 70 | 273 | 3.0 | 7.0 | 0.00 | 0.00 | 0.00 | 23 | 1002.5 |
| 20260504013538 | 70 | 267 | 4.0 | 7.0 | 0.00 | 0.00 | 0.00 | 24 | 1002.5 |
| 20260504013038 | 70 | 283 | 3.0 | 7.0 | 0.00 | 0.00 | 0.00 | 23 | 1002.6 |
| 20260504012538 | 71 | 284 | 3.0 | 6.0 | 0.00 | 0.00 | 0.00 | 23 | 1002.6 |
| 20260504012038 | 71 | 281 | 3.0 | 8.0 | 0.00 | 0.00 | 0.00 | 23 | 1002.7 |
| 20260504011537 | 71 | 272 | 5.0 | 8.0 | 0.00 | 0.00 | 0.00 | 23 | 1002.7 |
| 20260504011035 | 71 | 309 | 3.0 | 8.0 | 0.00 | 0.00 | 0.00 | 23 | 1002.8 |
| 20260504010534 | 71 | 271 | 4.0 | 8.0 | 0.00 | 0.00 | 0.00 | 23 | 1003.0 |
| 20260504010037 | 71 | 284 | 3.0 | 8.0 | 0.00 | 0.00 | 0.00 | 22 | 1003.0 |
| 20260504005534 | 71 | 246 | 5.0 | 9.0 | 0.00 | 0.00 | 0.00 | 23 | 1003.1 |
| 20260504005034 | 72 | 255 | 4.0 | 9.0 | 0.00 | 0.00 | 0.00 | 22 | 1003.2 |
| 20260504004535 | 72 | 256 | 5.0 | 10.0 | 0.00 | 0.00 | 0.00 | 22 | 1003.2 |
| 20260504004032 | 72 | 294 | 5.0 | 10.0 | 0.00 | 0.00 | 0.00 | 22 | 1003.3 |
| 20260504003532 | 72 | 273 | 4.0 | 11.0 | 0.00 | 0.00 | 0.00 | 23 | 1003.4 |
| 20260504003036 | 72 | 270 | 7.0 | 11.0 | 0.00 | 0.00 | 0.00 | 23 | 1003.4 |
| 20260504002531 | 72 | 277 | 8.0 | 11.0 | 0.00 | 0.00 | 0.00 | 21 | 1003.4 |
| 20260504002132 | 73 | 242 | 4.0 | 11.0 | 0.00 | 0.00 | 0.00 | 22 | 1003.5 |
| 20260504001533 | 73 | 284 | 7.0 | 11.0 | 0.00 | 0.00 | 0.00 | 22 | 1003.5 |
| 20260504001031 | 73 | 314 | 4.0 | 8.0 | 0.00 | 0.00 | 0.00 | 20 | 1003.4 |
| 20260504000530 | 73 | 266 | 4.0 | 10.0 | 0.00 | 0.00 | 0.00 | 21 | 1003.4 |
| 20260504000030 | 73 | 261 | 6.0 | 10.0 | 0.00 | 0.00 | 0.00 | 21 | 1003.4 |
| 20260503235530 | 74 | 273 | 7.0 | 10.0 | 0.00 | 0.00 | 0.00 | 20 | 1003.4 |
| 20260503235030 | 74 | 299 | 6.0 | 10.0 | 0.00 | 0.00 | 0.00 | 19 | 1003.4 |
| 20260503234542 | 74 | 254 | 5.0 | 10.0 | 0.00 | 0.00 | 0.00 | 19 | 1003.4 |
| 20260503234030 | 74 | 310 | 2.0 | 9.0 | 0.00 | 0.00 | 0.00 | 19 | 1003.4 |
| 20260503233529 | 74 | 318 | 4.0 | 11.0 | 0.00 | 0.00 | 0.00 | 20 | 1003.5 |
| 20260503233031 | 74 | 284 | 7.0 | 11.0 | 0.00 | 0.00 | 0.00 | 20 | 1003.5 |
| 20260503232528 | 75 | 239 | 5.0 | 10.0 | 0.00 | 0.00 | 0.00 | 18 | 1003.5 |
| 20260503232028 | 75 | 296 | 6.0 | 12.0 | 0.00 | 0.00 | 0.00 | 16 | 1003.6 |
| 20260503231529 | 75 | 290 | 6.0 | 12.0 | 0.00 | 0.00 | 0.00 | 17 | 1003.6 |
| 20260503231031 | 75 | 267 | 7.0 | 12.0 | 0.00 | 0.00 | 0.00 | 17 | 1003.6 |
| 20260503230528 | 75 | 308 | 5.0 | 15.0 | 0.00 | 0.00 | 0.00 | 17 | 1003.6 |
| 20260503230028 | 75 | 320 | 9.0 | 14.0 | 0.00 | 0.00 | 0.00 | 18 | 1003.6 |
| 20260503225530 | 75 | 301 | 4.0 | 14.0 | 0.00 | 0.00 | 0.00 | 19 | 1003.7 |
| 20260503225025 | 75 | 311 | 7.0 | 13.0 | 0.00 | 0.00 | 0.00 | 20 | 1003.7 |
| 20260503224525 | 76 | 335 | 6.0 | 13.0 | 0.00 | 0.00 | 0.00 | 14 | 1003.8 |
| 20260503224025 | 76 | 327 | 8.0 | 11.0 | 0.00 | 0.00 | 0.00 | 14 | 1003.7 |
| 20260503223526 | 76 | 311 | 4.0 | 13.0 | 0.00 | 0.00 | 0.00 | 15 | 1003.8 |
| 20260503223024 | 76 | 313 | 8.0 | 13.0 | 0.00 | 0.00 | 0.00 | 14 | 1003.9 |
| 20260503222523 | 76 | 11 | 8.0 | 13.0 | 0.00 | 0.00 | 0.00 | 14 | 1004.0 |
| 20260503222024 | 76 | 350 | 2.0 | 12.0 | 0.00 | 0.00 | 0.00 | 15 | 1004.1 |
| 20260503221523 | 76 | 331 | 8.0 | 12.0 | 0.00 | 0.00 | 0.00 | 18 | 1004.1 |
| 20260503221021 | 76 | 244 | 7.0 | 12.0 | 0.00 | 0.00 | 0.00 | 17 | 1004.2 |
| 20260503220524 | 76 | 207 | 2.0 | 5.0 | 0.00 | 0.00 | 0.00 | 17 | 1004.4 |
| 20260503220038 | 76 | 269 | 1.0 | 6.0 | 0.00 | 0.00 | 0.00 | 16 | 1004.5 |
| 20260503215523 | 76 | 94 | 0.0 | 4.0 | 0.00 | 0.00 | 0.00 | 14 | 1004.6 |
| 20260503215018 | 76 | 94 | 1.0 | 4.0 | 0.00 | 0.00 | 0.00 | 15 | 1004.7 |
| 20260503214517 | 76 | 252 | 0.0 | 4.0 | 0.00 | 0.00 | 0.00 | 15 | 1004.9 |
| 20260503214018 | 76 | 47 | 1.0 | 6.0 | 0.00 | 0.00 | 0.00 | 15 | 1004.9 |
| 20260503213517 | 75 | 274 | 2.0 | 8.0 | 0.00 | 0.00 | 0.00 | 16 | 1005.1 |
| 20260503213016 | 75 | 273 | 1.0 | 9.0 | 0.00 | 0.00 | 0.00 | 14 | 1005.2 |
| 20260503212515 | 76 | 243 | 2.0 | 8.0 | 0.00 | 0.00 | 0.00 | 15 | 1005.3 |
| 20260503212015 | 76 | 61 | 2.0 | 8.0 | 0.00 | 0.00 | 0.00 | 17 | 1005.3 |
| 20260503211513 | 77 | 5 | 4.0 | 10.0 | 0.00 | 0.00 | 0.00 | 16 | 1005.6 |
| 20260503211015 | 76 | 318 | 5.0 | 12.0 | 0.00 | 0.00 | 0.00 | 15 | 1005.8 |
| 20260503210511 | 76 | 309 | 7.0 | 12.0 | 0.00 | 0.00 | 0.00 | 15 | 1005.8 |
| 20260503210011 | 75 | 248 | 4.0 | 7.0 | 0.00 | 0.00 | 0.00 | 18 | 1005.8 |
| 20260503205510 | 75 | 355 | 1.0 | 4.0 | 0.00 | 0.00 | 0.00 | 15 | 1006.0 |
| 20260503205010 | 75 | 46 | 2.0 | 5.0 | 0.00 | 0.00 | 0.00 | 16 | 1006.0 |
| 20260503204509 | 76 | 49 | 2.0 | 5.0 | 0.00 | 0.00 | 0.00 | 17 | 1006.1 |
| 20260503204014 | 75 | 45 | 1.0 | 5.0 | 0.00 | 0.00 | 0.00 | 16 | 1006.2 |
| 20260503203509 | 75 | 159 | 0.0 | 10.0 | 0.00 | 0.00 | 0.00 | 17 | 1006.3 |
| 20260503203020 | 75 | 22 | 2.0 | 10.0 | 0.00 | 0.00 | 0.00 | 19 | 1006.3 |
| 20260503202509 | 75 | 244 | 2.0 | 15.0 | 0.00 | 0.00 | 0.00 | 19 | 1006.5 |
| 20260503202009 | 75 | 187 | 2.0 | 22.0 | 0.00 | 0.00 | 0.00 | 19 | 1006.5 |
| 20260503201510 | 76 | 340 | 4.0 | 13.0 | 0.00 | 0.00 | 0.00 | 15 | 1006.1 |
| 20260503201011 | 76 | 232 | 1.0 | 15.0 | 0.00 | 0.00 | 0.00 | 17 | 1006.7 |
| 20260503200506 | 76 | 190 | 1.0 | 3.0 | 0.00 | 0.00 | 0.00 | 13 | 1006.7 |
| 20260503200006 | 76 | 204 | 1.0 | 3.0 | 0.00 | 0.00 | 0.00 | 12 | 1006.8 |
| 20260503195506 | 75 | 163 | 0.0 | 8.0 | 0.00 | 0.00 | 0.00 | 14 | 1006.8 |
| 20260503195005 | 76 | 183 | 3.0 | 8.0 | 0.00 | 0.00 | 0.00 | 13 | 1006.9 |
| 20260503194506 | 75 | 156 | 2.0 | 9.0 | 0.00 | 0.00 | 0.00 | 14 | 1007.0 |
| 20260503194003 | 75 | 109 | 0.0 | 9.0 | 0.00 | 0.00 | 0.00 | 15 | 1007.1 |
| 20260503193503 | 75 | 150 | 2.0 | 9.0 | 0.00 | 0.00 | 0.00 | 17 | 1007.1 |
| 20260503193003 | 75 | 153 | 1.0 | 10.0 | 0.00 | 0.00 | 0.00 | 15 | 1007.3 |
| 20260503192502 | 76 | 138 | 1.0 | 7.0 | 0.00 | 0.00 | 0.00 | 15 | 1007.3 |
| 20260503192100 | 76 | 120 | 1.0 | 9.0 | 0.00 | 0.00 | 0.00 | 17 | 1007.3 |
| 20260503191609 | 75 | 132 | 2.0 | 9.0 | 0.00 | 0.00 | 0.00 | 16 | 1007.4 |
| 20260503191057 | 74 | 88 | 1.0 | 3.0 | 0.00 | 0.00 | 0.00 | 18 | 1007.6 |
| 20260503190556 | 73 | 190 | 0.0 | 5.0 | 0.00 | 0.00 | 0.00 | 15 | 1007.6 |
| 20260503190058 | 73 | 155 | 1.0 | 5.0 | 0.00 | 0.00 | 0.00 | 19 | 1007.8 |
| 20260503185555 | 73 | 97 | 1.0 | 7.0 | 0.00 | 0.00 | 0.00 | 18 | 1007.7 |
| 20260503185058 | 73 | 65 | 0.0 | 4.0 | 0.00 | 0.00 | 0.00 | 16 | 1007.8 |
| 20260503184607 | 73 | 191 | 1.0 | 4.0 | 0.00 | 0.00 | 0.00 | 19 | 1007.8 |
| 20260503184055 | 73 | 216 | 1.0 | 4.0 | 0.00 | 0.00 | 0.00 | 16 | 1007.9 |
| 20260503183555 | 73 | 151 | 0.0 | 5.0 | 0.00 | 0.00 | 0.00 | 16 | 1008.1 |
| 20260503183107 | 73 | 140 | 0.0 | 7.0 | 0.00 | 0.00 | 0.00 | 18 | 1008.1 |
| 20260503182556 | 73 | 113 | 1.0 | 7.0 | 0.00 | 0.00 | 0.00 | 17 | 1008.2 |
| 20260503182053 | 73 | 156 | 1.0 | 6.0 | 0.00 | 0.00 | 0.00 | 16 | 1008.2 |
| 20260503181607 | 73 | 172 | 2.0 | 9.0 | 0.00 | 0.00 | 0.00 | 15 | 1008.2 |
| 20260503181052 | 73 | 167 | 2.0 | 9.0 | 0.00 | 0.00 | 0.00 | 15 | 1008.3 |
| 20260503180551 | 74 | 157 | 1.0 | 6.0 | 0.00 | 0.00 | 0.00 | 15 | 1008.3 |
| 20260503180051 | 74 | 176 | 1.0 | 6.0 | 0.00 | 0.00 | 0.00 | 15 | 1008.3 |
| 20260503175549 | 73 | 152 | 3.0 | 7.0 | 0.00 | 0.00 | 0.00 | 16 | 1008.4 |
| 20260503175051 | 73 | 150 | 1.0 | 4.0 | 0.00 | 0.00 | 0.00 | 16 | 1008.4 |
| 20260503174549 | 74 | 160 | 2.0 | 8.0 | 0.00 | 0.00 | 0.00 | 16 | 1008.5 |
| 20260503174048 | 73 | 190 | 2.0 | 8.0 | 0.00 | 0.00 | 0.00 | 17 | 1008.5 |
| 20260503173549 | 73 | 173 | 2.0 | 5.0 | 0.00 | 0.00 | 0.00 | 17 | 1008.6 |
| 20260503173057 | 72 | 170 | 1.0 | 4.0 | 0.00 | 0.00 | 0.00 | 17 | 1008.6 |
| 20260503172546 | 72 | 186 | 1.0 | 6.0 | 0.00 | 0.00 | 0.00 | 18 | 1008.7 |
| 20260503172044 | 72 | 161 | 2.0 | 6.0 | 0.00 | 0.00 | 0.00 | 17 | 1008.8 |
| 20260503171543 | 72 | 184 | 1.0 | 8.0 | 0.00 | 0.00 | 0.00 | 18 | 1008.8 |
| 20260503171041 | 72 | 105 | 2.0 | 8.0 | 0.00 | 0.00 | 0.00 | 18 | 1008.8 |
| 20260503170541 | 72 | 164 | 1.0 | 3.0 | 0.00 | 0.00 | 0.00 | 18 | 1008.9 |
| 20260503150516 | 63 | 162 | 2.0 | 6.0 | 0.00 | 0.00 | 0.00 | 27 | 1009.8 |
| 20260503131058 | 51 | 360 | 1.0 | 2.0 | 0.00 | 0.00 | 0.00 | 44 | 1009.7 |
| 20260503130555 | 52 | 360 | 1.0 | 2.0 | 0.00 | 0.00 | 0.00 | 42 | 1009.7 |
| 20260503110540 | 50 | 126 | 0.0 | 2.0 | 0.00 | 0.00 | 0.00 | 44 | 1010.2 |